Date_and_time,latitude,longitude,wind_speed,RelWindDirFrom,WindDirFrom,air_pressure,air_temperature,relative_humidity,Temp,platform_speed_wrt_ground,air_pressure_at_mean_sea_level,platform_orientation
2018-04-19 23:50,50.6304266666667,-96.9807616666667,4.8,5.6,85,1001.08,8.0,34,3.66,0.0,1028.45,360.0
2018-04-20 00:00,50.6304283333333,-96.98076,5.0,6.1,78,1001.03,7.3,35,3.67,0.0,1028.44,360.0
2018-04-20 00:10,50.6304266666667,-96.98076,4.8,6.4,74,1001.04,7.1,34,3.67,0.0,1028.46,360.0
2018-04-20 00:20,50.6304283333333,-96.98076,2.3,4.9,94,1001.08,6.9,36,3.68,0.0,1028.53,360.0
2018-04-20 00:30,50.6304283333333,-96.98076,1.6,3.2,153,1001.07,6.4,37,3.70,0.0,1028.54,360.0
2018-04-20 00:40,50.6304283333333,-96.9807583333333,0.9,2.7,130,1001.07,6.7,35,3.70,0.0,1028.49,360.0
2018-04-20 00:50,50.6304233333333,-96.9807366666667,0.8,2.2,112,1001.08,7.5,32,3.68,0.0,1028.50,360.0
2018-04-20 01:00,50.63045,-96.980785,1.8,2.7,78,1001.07,7.5,33,3.68,0.0,1028.54,316.2
2018-04-20 01:10,50.63043,-96.9807566666667,2.7,3.5,78,1001.06,6.5,35,3.69,0.0,1028.58,316.2
2018-04-20 01:20,50.6304233333333,-96.9807466666667,2.1,3.9,66,1001.03,5.8,37,3.70,0.0,1028.55,316.2
2018-04-20 01:30,50.6304233333333,-96.9807516666667,0.8,2.1,54,1001.06,5.4,38,3.69,0.0,1028.59,316.2
2018-04-20 01:40,50.630425,-96.9807533333333,0.1,1.2,92,1001.03,5.2,38,3.68,0.0,1028.59,316.2
2018-04-20 01:50,50.6304066666667,-96.980755,0.6,1.2,63,1001.03,5.3,37,3.67,0.0,1028.63,316.2
2018-04-20 02:00,50.6304283333333,-96.9807716666667,0.8,2.1,60,1001.03,5.2,37,3.67,0.0,1028.64,183.2
2018-04-20 02:10,50.6304216666667,-96.98077,1.4,2.1,42,1001.03,5.4,36,3.67,0.0,1028.64,183.2
2018-04-20 02:20,50.63044,-96.980775,2.6,3.4,25,1001.04,5.5,35,3.67,0.0,1028.67,183.2
2018-04-20 02:30,50.6304383333333,-96.9807683333333,2.9,3.2,24,1001.03,5.6,35,3.67,0.0,1028.64,183.2
2018-04-20 02:40,50.63044,-96.980765,3.1,3.6,31,1001.00,5.7,34,3.67,0.0,1028.56,183.2
2018-04-20 02:50,50.630435,-96.980765,3.3,3.8,28,1000.92,5.6,35,3.67,0.0,1028.49,183.2
2018-04-20 03:00,50.6304333333333,-96.980765,3.4,3.9,27,1000.91,5.5,34,3.67,0.0,1028.52,347.4
2018-04-20 03:10,50.6304316666667,-96.9807633333333,3.1,3.7,17,1000.98,5.6,34,3.68,0.0,1028.63,347.4
2018-04-20 03:20,50.6304316666667,-96.9807633333333,3.3,3.8,16,1000.98,5.5,34,3.68,0.0,1028.65,347.4
2018-04-20 03:30,50.63043,-96.9807616666667,3.6,4.2,11,1000.96,5.5,34,3.68,0.0,1028.65,347.4
2018-04-20 03:40,50.6304333333333,-96.9807483333333,2.9,3.6,5,1000.98,5.4,35,3.68,0.0,1028.66,347.4
2018-04-20 03:50,50.630445,-96.980795,3.0,3.7,0,1001.00,5.3,35,3.68,0.0,1028.69,347.4
2018-04-20 04:00,50.6304283333333,-96.9807633333333,3.9,4.6,4,1001.03,5.1,36,3.67,0.0,1028.73,171.6
2018-04-20 04:10,50.630415,-96.9807466666667,3.7,4.5,353,1001.03,4.6,36,3.66,0.0,1028.75,171.6
2018-04-20 04:20,50.63042,-96.9807566666667,3.1,3.7,348,1000.99,4.7,36,3.67,0.0,1028.69,171.6
2018-04-20 04:30,50.63042,-96.9807383333333,3.6,4.6,350,1000.99,4.9,36,3.67,0.0,1028.68,171.6
2018-04-20 04:40,50.6304133333333,-96.9807683333333,4.8,5.8,360,1001.00,5.3,35,3.68,0.0,1028.67,171.6
2018-04-20 04:50,50.6304033333333,-96.9807783333333,5.2,6.5,4,1000.98,5.3,36,3.68,0.0,1028.66,171.6
2018-04-20 05:00,50.6304116666667,-96.980765,5.4,6.3,6,1001.04,5.0,36,3.67,0.0,1028.73,138.7
2018-04-20 05:10,50.630415,-96.9807616666667,4.9,5.4,9,1001.14,4.9,37,3.67,0.0,1028.84,138.7
2018-04-20 05:20,50.6304183333333,-96.9807633333333,4.7,5.4,11,1001.21,4.9,37,3.68,0.0,1028.92,138.7
2018-04-20 05:30,50.630415,-96.9807666666667,4.2,5.1,9,1001.28,4.7,38,3.67,0.0,1029.00,138.7
2018-04-20 05:40,50.630415,-96.9807683333333,3.5,4.0,14,1001.33,4.5,40,3.67,0.0,1029.07,138.7
2018-04-20 05:50,50.630415,-96.9807683333333,3.6,4.3,16,1001.38,4.2,41,3.67,0.0,1029.15,138.7
2018-04-20 06:00,50.630415,-96.9807683333333,4.2,4.7,17,1001.38,4.1,40,3.67,0.0,1029.18,360.0
2018-04-20 06:10,50.6304183333333,-96.9807666666667,3.8,4.4,19,1001.39,4.1,41,3.67,0.0,1029.18,360.0
2018-04-20 06:20,50.6304316666667,-96.9807733333333,2.8,3.5,18,1001.38,3.7,42,3.67,0.0,1029.18,360.0
2018-04-20 06:30,50.6304216666667,-96.9807816666667,1.6,2.5,13,1001.42,3.3,43,3.67,0.0,1029.22,360.0
2018-04-20 06:40,50.630435,-96.9807566666667,1.1,2.0,3,1001.39,3.1,44,3.67,0.0,1029.20,360.0
2018-04-20 06:50,50.63043,-96.98076,1.0,1.8,328,1001.38,2.9,46,3.67,0.0,1029.21,360.0
2018-04-20 07:00,50.6304283333333,-96.9807616666667,0.4,1.3,255,1001.38,2.1,49,3.67,0.0,1029.26,90.0
2018-04-20 07:10,50.6304266666667,-96.9807616666667,0.6,1.1,235,1001.39,1.6,51,3.67,0.0,1029.30,90.0
2018-04-20 07:20,50.630425,-96.9807616666667,0.6,1.5,275,1001.38,1.7,51,3.67,0.0,1029.29,90.0
2018-04-20 07:30,50.6303966666667,-96.9807733333333,1.3,2.0,271,1001.39,1.5,52,3.67,0.0,1029.33,90.0
2018-04-20 07:40,50.6304183333333,-96.9807616666667,1.4,2.1,282,1001.41,1.8,49,3.67,0.0,1029.35,90.0
2018-04-20 07:50,50.6304216666667,-96.9807633333333,0.6,1.6,300,1001.43,1.9,48,3.66,0.0,1029.36,90.0
2018-04-20 08:00,50.6304316666667,-96.98079,1.7,2.4,360,1001.39,2.1,49,3.67,0.0,1029.31,311.6
2018-04-20 08:10,50.6304166666667,-96.9807683333333,0.2,1.1,4,1001.41,0.8,56,3.67,0.0,1029.41,311.6
2018-04-20 08:20,50.6304166666667,-96.9807666666667,0.3,1.0,5,1001.51,0.2,59,3.67,0.0,1029.58,311.6
2018-04-20 08:30,50.6304166666667,-96.980765,1.4,4.2,195,1001.59,-0.8,64,3.67,0.0,1029.72,311.6
2018-04-20 08:40,50.6304183333333,-96.9807633333333,5.6,10.0,186,1001.84,-1.4,68,3.67,0.0,1030.02,311.6
2018-04-20 08:50,50.63042,-96.9807633333333,0.8,5.6,212,1001.73,-0.2,58,3.67,0.0,1029.88,311.6
2018-04-20 09:00,50.6304216666667,-96.9807633333333,0.7,4.7,5,1001.68,1.0,52,3.65,0.0,1029.80,360.0
2018-04-20 09:10,50.6304216666667,-96.9807616666667,0.3,2.3,37,1001.73,1.3,52,3.59,0.0,1029.83,360.0
2018-04-20 09:20,50.6304233333333,-96.9807616666667,1.9,4.2,0,1001.69,1.2,54,3.46,0.0,1029.80,360.0
2018-04-20 09:30,50.6304316666667,-96.9807566666667,3.4,4.3,6,1001.61,1.5,50,3.38,0.0,1029.69,360.0
